Regional Weather Roundup
Issued by NWS Charleston, SC

Current Version | Previous Version | Graphics & Text | Print | Product List | Glossary On
Versions: 1 2 3 4 5 6 7 8 9 10 11 12 13 14 15 16 17 18 19 20 21 22 23 24 25 26 27 28 29 30 31 32 33 34 35 36 37 38 39 40 41 42 43 44 45 46 47 48 49 50
141
ASUS42 KCHS 240812
RWRCHS

REGIONAL WEATHER ROUNDUP
NATIONAL WEATHER SERVICE CHARLESTON SC
300 AM EST FRI NOV 24 2017

NOTE: "FAIR" INDICATES FEW OR NO CLOUDS BELOW 12,000 FEET WITH NO
SIGNIFICANT WEATHER AND/OR OBSTRUCTIONS TO VISIBILITY.

NOT ALL STATIONS ARE QUALITY CONTROLLED. USE DATA WITH CAUTION...
ESPECIALLY DEWPOINT OBSERVATIONS.

SCZ027-030-031-034>040-042>050-240900-
...SOUTHEAST SOUTH CAROLINA...

CITY           SKY/WX    TMP DP  RH WIND       PRES   REMARKS
N CHARLESTON   PTCLDY    44  42  93 N12       29.97F
WATERFRONT PRK   N/A     48  46  93 N10       29.82S
JOHNS ISLAND   CLOUDY    46  45  93 N13       29.96S
PINOPOLIS        N/A     45  43  93 NE9       29.93S
MONCKS CORNER  FAIR      43  39  87 N6        30.00S
SUMMERVILLE    FAIR      41  37  87 N6        30.01R
BEAUFORT MCAS  CLOUDY    47  43  86 N14       29.97F
BEAUFORT ARPT  CLOUDY    46  43  87 N9        29.96S
HILTON HEAD IS CLOUDY    50  45  81 N14       29.95F
WALTERBORO     MOSUNNY   41  37  87 N7        30.00S
ALLENDALE      FAIR      39  36  87 N8        30.00S WCI  34

...SOUTHERN MIDLANDS AND PEE DEE...

CITY           SKY/WX    TMP DP  RH WIND       PRES   REMARKS
GEORGETOWN     CLOUDY    43  43 100 N8        30.00S
KINGSTREE      FAIR      37  36  93 NW3       30.02F
ORANGEBURG     CLEAR     40  34  79 NE5       30.02S WCI  37
BARNWELL         N/A     41  36  81 N6        30.02S
AIKEN          FAIR      34  32  93 NE3       30.05S
MANNING        FAIR      37  37 100 MISG      30.02S
COLUMBIA       CLEAR     33  32  96 CALM      30.04S
SUMTER         CLEAR     34  30  85 N7        30.02S WCI  28
FLORENCE       CLEAR     37  33  85 N8        30.04S WCI  31
MYRTLE BEACH   CLOUDY    43  40  89 N12       30.01F
N MYRTLE BEACH CLOUDY    44  41  89 N9        30.01S

$$

GAZ063-065-086>088-099>101-113>116-118-119-134>141-150-240900-
...SOUTHEAST GEORGIA...

CITY           SKY/WX    TMP DP  RH WIND       PRES   REMARKS
SAVANNAH ARPT  CLOUDY    46  42  86 N9        29.96F
HUNTER AAF     MOCLDY    47  43  84 N5        29.93F
FORT STEWART   CLOUDY    47  41  81 N7        29.94F
STATESBORO     CLEAR     41  36  81 N3        29.99F
SYLVANIA       SUNNY     42  39  89 NE5       30.01S
CLAXTON        FAIR      45  40  85 CALM      29.99S

...CSRA...CENTRAL AND FAR SOUTHEAST GEORGIA...

CITY           SKY/WX    TMP DP  RH WIND       PRES   REMARKS
THOMSON        CLEAR     32  31  94 CALM      30.09R
AUGUSTA-BUSH   CLEAR     34  33  96 CALM      30.03S
AUGUSTA-DANIEL CLEAR     43  34  70 N7        30.03S
SWAINSBORO     FAIR      43  37  81 NE7       30.01S
VIDALIA        CLEAR     43  41  93 N6        29.99S
EASTMAN        FAIR      43  35  71 N5        30.03S
HAZLEHURST     FAIR      46  42  85 N6        29.98S
ALMA           CLEAR     47  43  86 N5        29.96S
WAYCROSS       CLOUDY    50  47  90 N9        29.94F
JESUP          CLOUDY    48  43  81 CALM      29.95F
BAXLEY         FAIR      45  43  93 N6        29.97S
BRUNSWICK      PTCLDY    46  45  93 N3        29.93F
SAINT SIMONS   CLOUDY    50  49  96 N8        29.90F

$$

SCZ027-028-034-036>038-045-046-048>050-GAZ119-141-240900-
...LAKE AND SUPPLEMENTAL COASTAL OBSERVATIONS...

STATION/POSITION TIME  TEMP    WIND        PRES    WAVE   SWELL
                       AIR SEA DIR/SP/G            HT/PER HT/PER/DIR
                 (UTC) (F)     (DEG/KT/KT) (MB)    (FT/S) (FT/S/D)
WINYAH BAY       NOT AVBL
LAKE MURRAY      0720   39     350/  2/  4 1016.6F
ACE BASIN NERRS  0645   45     360/  3     1015.0
FORT PULASKI     0742   49 60  360/  8/ 11 1014.2F
SAPELO ISLAND    0700   51     360/ 11     1013.0

$$

ANZ835-935-AMZ111-154-330-350-352-354-370-450-454-472-240900-
...C-MAN AND BUOY OBSERVATIONS...

STATION/POSITION TIME  TEMP    WIND        PRES    WAVE   SWELL
                       AIR SEA DIR/SP/G            HT/PER HT/PER/DIR
                 (UTC) (F)     (DEG/KT/KT) (MB)    (FT/S) (FT/S/D)
BUOY 41004       0750   65 75   20/ 25/ 29 1012.1F   7/ 9   3/100/ 9
BUOY 41008       0750   58 66   20/ 19/ 23 1011.9F   6/ 6   2/ 90/ 9
FOLLY BEACH CMAN 0700   50     360/ 10/ 13 1015.0F
CAPERS NEARSHORE 0708   49 61   20/ 16/ 21 1013.9F
FRIPP NEARSHORE  0708   49 62  350/ 12/ 23 1013.2F


STATION/POSITION TIME  TEMP    WIND        PRES    WAVE   SWELL
                       AIR SEA DIR/SP/G            HT/PER HT/PER/DIR
                 (UTC) (F)     (DEG/KT/KT) (MB)    (FT/S) (FT/S/D)
5E ST. MARYS GA  0800      66                N/A     6/ 7   2/ 90/11
FRYING PAN BUOY  0750   62 72   20/ 21/ 25 1013.6F   6/ 9   3/130/ 9
BUOY 41025       0800   57 72   20/ 16/ 21 1016.0
CAPE LOOKOUT NC  0700           10/ 13/ 16 1016.4F
BUOY 41002       0750   69 76   60/ 25/ 29 1009.7F  10/ 9
BUOY 41010       NOT AVBL
ST AUGUSTINE FL  0800   62 68  360/ 25/ 29 1010.7S


$$




USA.gov is the U.S. government's official web portal to all federal, state and local government web resources and services.